QPF
0.05 0.04 0.05 0.06 0.05 0.05 0.05 0.05 0.05 0.04 0.04 0.04 0.04 0.04 0.06 0.05 0.04 0.04 0.05 0.05 0.05 0.04 0.05 0.05 0.04 0.04 0.04 0.04 0.05 0.05 0.04 0.03 0.04 0.05 0.06 0.05 0.03 0.03 0.03 0.02 0.01 0.01 0.01
0.05 0.05 0.05 0.06 0.05 0.04 0.04 0.04 0.05 0.06 0.06 0.05 0.04 0.04 0.04 0.05 0.05 0.05 0.05 0.07 0.05 0.05 0.05 0.04 0.05 0.05 0.05 0.06 0.07 0.07 0.08 0.05 0.04 0.03 0.02 0.03 0.03 0.03 0.04 0.03 0.02 0.02 0.01
0.06 0.05 0.06 0.06 0.04 0.03 0.03 0.03 0.04 0.05 0.05 0.04 0.04 0.03 0.04 0.05 0.04 0.04 0.04 0.05 0.06 0.06 0.06 0.06 0.05 0.06 0.06 0.06 0.07 0.08 0.08 0.07 0.05 0.04 0.04 0.04 0.03 0.03 0.02 0.02 0.02 0.02 0.02
0.05 0.05 0.05 0.06 0.05 0.04 0.04 0.05 0.05 0.05 0.05 0.05 0.06 0.06 0.05 0.05 0.03 0.03 0.03 0.04 0.07 0.07 0.06 0.05 0.07 0.07 0.07 0.07 0.08 0.09 0.09 0.09 0.08 0.06 0.08 0.08 0.06 0.03 0.02 0.02 0.02 0.02 0.02
0.04 0.04 0.05 0.06 0.06 0.05 0.06 0.05 0.06 0.07 0.08 0.09 0.06 0.06 0.05 0.04 0.04 0.03 0.04 0.03 0.05 0.06 0.06 0.04 0.05 0.06 0.07 0.09 0.12 0.12 0.11 0.11 0.10 0.08 0.08 0.09 0.08 0.06 0.04 0.03 0.04 0.05 0.03
0.03 0.04 0.04 0.05 0.05 0.05 0.07 0.07 0.08 0.08 0.08 0.09 0.05 0.04 0.05 0.04 0.05 0.05 0.04 0.04 0.04 0.04 0.05 0.05 0.06 0.05 0.05 0.07 0.09 0.11 0.12 0.12 0.12 0.11 0.11 0.10 0.10 0.10 0.08 0.06 0.06 0.06 0.05
0.04 0.07 0.04 0.05 0.05 0.05 0.06 0.06 0.06 0.06 0.06 0.06 0.06 0.06 0.04 0.04 0.05 0.05 0.06 0.06 0.04 0.03 0.03 0.03 0.04 0.06 0.07 0.04 0.04 0.05 0.07 0.09 0.12 0.11 0.11 0.11 0.10 0.10 0.09 0.10 0.08 0.07 0.06
0.05 0.05 0.06 0.05 0.06 0.07 0.07 0.07 0.08 0.06 0.05 0.06 0.08 0.08 0.05 0.05 0.04 0.03 0.04 0.04 0.04 0.03 0.03 0.03 0.03 0.04 0.06 0.08 0.05 0.03 0.06 0.08 0.10 0.11 0.09 0.07 0.07 0.06 0.06 0.07 0.08 0.07 0.06
0.03 0.05 0.07 0.08 0.09 0.08 0.08 0.08 0.08 0.07 0.07 0.05 0.06 0.08 0.08 0.07 0.06 0.05 0.03 0.03 0.02 0.02 0.03 0.03 0.03 0.03 0.04 0.05 0.05 0.04 0.05 0.05 0.06 0.07 0.08 0.08 0.06 0.05 0.07 0.10 0.10 0.07 0.05
0.03 0.04 0.05 0.07 0.08 0.08 0.07 0.06 0.06 0.07 0.07 0.05 0.05 0.06 0.07 0.07 0.06 0.06 0.03 0.03 0.02 0.02 0.03 0.03 0.04 0.05 0.04 0.06 0.07 0.05 0.03 0.04 0.04 0.05 0.07 0.07 0.07 0.08 0.09 0.09 0.08 0.07 0.06
0.04 0.03 0.04 0.06 0.07 0.09 0.09 0.06 0.06 0.07 0.06 0.07 0.07 0.06 0.05 0.04 0.04 0.05 0.05 0.03 0.03 0.03 0.03 0.02 0.03 0.02 0.02 0.04 0.05 0.03 0.03 0.03 0.04 0.04 0.04 0.04 0.05 0.06 0.06 0.06 0.06 0.05 0.05
0.05 0.04 0.04 0.05 0.05 0.06 0.06 0.06 0.07 0.09 0.08 0.09 0.08 0.06 0.05 0.05 0.05 0.05 0.06 0.05 0.04 0.03 0.02 0.01 0.01 0.01 0.01 0.02 0.02 0.02 0.02 0.04 0.04 0.03 0.03 0.02 0.02 0.03 0.04 0.06 0.06 0.06 0.06
0.05 0.05 0.03 0.04 0.05 0.05 0.03 0.04 0.06 0.07 0.06 0.08 0.11 0.08 0.06 0.06 0.05 0.05 0.06 0.05 0.04 0.03 0.02 0.01 0.01 0.01 0.01 0.02 0.04 0.01 0.02 0.02 0.02 0.01 0.01 0.01 0.01 0.02 0.03 0.04 0.05 0.06 0.07
0.04 0.03 0.03 0.04 0.03 0.03 0.03 0.05 0.05 0.05 0.04 0.05 0.05 0.08 0.09 0.07 0.05 0.05 0.05 0.06 0.05 0.04 0.03 0.03 0.01 0.01 0.00 0.01 0.03 0.02 0.02 0.02 0.01 0.00 0.00 0.01 0.01 0.02 0.03 0.03 0.03 0.05 0.08
0.04 0.04 0.04 0.06 0.05 0.04 0.04 0.05 0.05 0.04 0.04 0.05 0.05 0.05 0.07 0.08 0.06 0.05 0.06 0.09 0.09 0.08 0.06 0.04 0.01 0.01 0.01 0.01 0.02 0.02 0.01 0.01 0.00 0.00 0.00 0.01 0.01 0.01 0.00 0.00 0.01 0.02 0.03
0.04 0.04 0.03 0.03 0.03 0.03 0.03 0.03 0.04 0.05 0.05 0.05 0.05 0.04 0.04 0.05 0.05 0.04 0.04 0.06 0.07 0.09 0.07 0.03 0.02 0.02 0.02 0.02 0.01 0.01 0.01 0.00 0.00 0.00 0.00 0.00 0.00 0.00 0.00 0.00 0.00 0.01 0.01
0.03 0.02 0.01 0.02 0.01 0.02 0.02 0.03 0.03 0.04 0.05 0.04 0.03 0.03 0.04 0.03 0.04 0.04 0.04 0.05 0.06 0.06 0.06 0.04 0.04 0.02 0.03 0.02 0.01 0.01 0.01 0.00 0.01 0.00 0.00 0.00 0.00 0.00 0.00 0.00 0.00 0.00 0.01
0.02 0.01 0.01 0.02 0.01 0.01 0.02 0.02 0.02 0.02 0.05 0.07 0.05 0.04 0.04 0.04 0.04 0.04 0.04 0.04 0.04 0.05 0.05 0.04 0.02 0.02 0.02 0.02 0.02 0.02 0.01 0.01 0.01 0.01 0.01 0.00 0.00 0.00 0.00 0.00 0.00 0.00 0.01
0.02 0.01 0.01 0.02 0.02 0.02 0.02 0.02 0.02 0.02 0.02 0.03 0.04 0.04 0.04 0.03 0.04 0.04 0.03 0.03 0.03 0.03 0.04 0.03 0.02 0.02 0.01 0.01 0.01 0.01 0.01 0.01 0.00 0.00 0.00 0.00 0.00 0.00 0.00 0.00 0.00 0.00 0.00
0.02 0.02 0.02 0.02 0.02 0.01 0.01 0.02 0.02 0.02 0.02 0.02 0.02 0.03 0.04 0.03 0.03 0.03 0.03 0.03 0.03 0.03 0.04 0.03 0.02 0.01 0.01 0.01 0.01 0.01 0.01 0.00 0.00 0.00 0.00 0.00 0.00 0.00 0.00 0.00 0.00 0.00 0.00
0.01 0.01 0.02 0.02 0.02 0.01 0.01 0.02 0.02 0.01 0.02 0.02 0.02 0.02 0.02 0.02 0.02 0.02 0.02 0.02 0.03 0.03 0.03 0.03 0.03 0.03 0.02 0.02 0.01 0.01 0.01 0.01 0.00 0.00 0.00 0.00 0.00 0.00 0.00 0.00 0.00 0.00 0.00
0.02 0.02 0.02 0.02 0.01 0.01 0.01 0.02 0.02 0.02 0.01 0.01 0.01 0.01 0.01 0.01 0.01 0.02 0.03 0.03 0.04 0.04 0.04 0.04 0.04 0.03 0.03 0.02 0.02 0.01 0.01 0.01 0.01 0.01 0.00 0.00 0.01 0.01 0.01 0.00 0.00 0.00 0.00
0.03 0.02 0.02 0.01 0.01 0.01 0.01 0.01 0.01 0.01 0.01 0.00 0.00 0.00 0.01 0.01 0.02 0.03 0.03 0.03 0.03 0.03 0.04 0.04 0.04 0.03 0.03 0.02 0.02 0.01 0.01 0.01 0.01 0.01 0.00 0.01 0.01 0.01 0.01 0.01 0.01 0.00 0.00
0.04 0.03 0.02 0.02 0.01 0.00 0.01 0.01 0.01 0.00 0.00 0.00 0.01 0.01 0.01 0.02 0.03 0.04 0.03 0.03 0.03 0.03 0.03 0.04 0.04 0.04 0.04 0.03 0.03 0.02 0.02 0.01 0.01 0.01 0.01 0.01 0.02 0.02 0.02 0.01 0.01 0.00 0.00
0.06 0.04 0.03 0.02 0.01 0.00 0.00 0.00 0.00 0.00 0.00 0.00 0.01 0.02 0.02 0.02 0.02 0.03 0.04 0.04 0.03 0.03 0.04 0.04 0.03 0.03 0.02 0.02 0.03 0.03 0.03 0.02 0.02 0.02 0.02 0.02 0.02 0.02 0.02 0.01 0.01 0.01 0.01
0.05 0.03 0.02 0.02 0.02 0.01 0.01 0.01 0.01 0.01 0.01 0.02 0.02 0.03 0.02 0.02 0.02 0.02 0.03 0.04 0.04 0.04 0.04 0.03 0.02 0.02 0.02 0.02 0.02 0.03 0.03 0.03 0.02 0.02 0.02 0.02 0.02 0.02 0.02 0.01 0.01 0.01 0.01
MSLP
1016.36 1016.45 1016.47 1016.43 1016.37 1016.29 1016.22 1016.18 1016.14 1016.10 1016.02 1015.91 1015.76 1015.59 1015.42 1015.30 1015.27 1015.35 1015.54 1015.83 1016.18 1016.55 1016.89 1017.17 1017.37 1017.50 1017.60 1017.68 1017.78 1017.92 1018.10 1018.30 1018.52 1018.72 1018.88 1018.98 1019.04 1019.05 1019.05 1019.05 1019.08 1019.15 1019.26
1016.22 1016.28 1016.28 1016.23 1016.15 1016.06 1015.98 1015.93 1015.90 1015.86 1015.80 1015.71 1015.57 1015.39 1015.21 1015.05 1014.95 1014.95 1015.06 1015.27 1015.55 1015.87 1016.20 1016.50 1016.76 1016.97 1017.16 1017.33 1017.50 1017.70 1017.91 1018.13 1018.34 1018.52 1018.65 1018.73 1018.76 1018.75 1018.73 1018.72 1018.75 1018.82 1018.95
1016.07 1016.11 1016.09 1016.03 1015.94 1015.86 1015.79 1015.75 1015.73 1015.71 1015.67 1015.58 1015.44 1015.26 1015.04 1014.83 1014.66 1014.57 1014.58 1014.69 1014.88 1015.14 1015.44 1015.75 1016.05 1016.32 1016.58 1016.82 1017.06 1017.30 1017.54 1017.76 1017.97 1018.13 1018.24 1018.30 1018.32 1018.30 1018.29 1018.29 1018.33 1018.42 1018.57
1015.92 1015.93 1015.90 1015.83 1015.76 1015.70 1015.66 1015.64 1015.64 1015.64 1015.61 1015.53 1015.38 1015.18 1014.93 1014.66 1014.42 1014.24 1014.15 1014.16 1014.26 1014.45 1014.70 1014.99 1015.29 1015.59 1015.88 1016.17 1016.44 1016.70 1016.95 1017.18 1017.37 1017.53 1017.63 1017.69 1017.72 1017.73 1017.74 1017.77 1017.84 1017.96 1018.12
1015.74 1015.73 1015.69 1015.64 1015.60 1015.57 1015.56 1015.58 1015.60 1015.62 1015.59 1015.51 1015.36 1015.14 1014.86 1014.56 1014.26 1014.00 1013.82 1013.73 1013.74 1013.84 1014.02 1014.25 1014.52 1014.81 1015.10 1015.39 1015.66 1015.93 1016.17 1016.40 1016.59 1016.74 1016.86 1016.95 1017.01 1017.06 1017.11 1017.19 1017.29 1017.44 1017.61
1015.54 1015.50 1015.46 1015.43 1015.42 1015.42 1015.46 1015.50 1015.55 1015.58 1015.56 1015.49 1015.33 1015.10 1014.81 1014.48 1014.14 1013.84 1013.59 1013.42 1013.34 1013.35 1013.45 1013.61 1013.81 1014.05 1014.30 1014.55 1014.80 1015.05 1015.28 1015.50 1015.70 1015.87 1016.02 1016.15 1016.26 1016.36 1016.47 1016.59 1016.73 1016.89 1017.08
1015.29 1015.22 1015.18 1015.17 1015.19 1015.23 1015.30 1015.37 1015.44 1015.48 1015.47 1015.39 1015.25 1015.02 1014.74 1014.41 1014.07 1013.74 1013.45 1013.23 1013.08 1013.01 1013.01 1013.08 1013.20 1013.36 1013.54 1013.74 1013.95 1014.17 1014.39 1014.60 1014.81 1015.01 1015.20 1015.38 1015.55 1015.71 1015.87 1016.02 1016.19 1016.36 1016.55
1014.99 1014.90 1014.85 1014.85 1014.89 1014.96 1015.05 1015.14 1015.22 1015.27 1015.26 1015.20 1015.07 1014.87 1014.61 1014.32 1014.00 1013.68 1013.38 1013.13 1012.93 1012.79 1012.72 1012.70 1012.73 1012.80 1012.91 1013.05 1013.21 1013.40 1013.61 1013.83 1014.06 1014.30 1014.53 1014.76 1014.97 1015.18 1015.36 1015.54 1015.71 1015.87 1016.04
1014.64 1014.53 1014.47 1014.48 1014.53 1014.61 1014.71 1014.80 1014.88 1014.93 1014.93 1014.88 1014.78 1014.62 1014.41 1014.17 1013.90 1013.62 1013.34 1013.09 1012.87 1012.69 1012.54 1012.45 1012.40 1012.41 1012.45 1012.54 1012.67 1012.84 1013.04 1013.28 1013.53 1013.80 1014.07 1014.34 1014.58 1014.81 1015.00 1015.17 1015.31 1015.45 1015.58
1014.27 1014.13 1014.06 1014.06 1014.10 1014.18 1014.27 1014.36 1014.44 1014.48 1014.48 1014.45 1014.38 1014.26 1014.12 1013.94 1013.74 1013.52 1013.29 1013.06 1012.84 1012.64 1012.47 1012.33 1012.23 1012.18 1012.19 1012.24 1012.36 1012.52 1012.74 1012.99 1013.27 1013.57 1013.87 1014.15 1014.40 1014.62 1014.79 1014.92 1015.02 1015.10 1015.19
1013.87 1013.71 1013.63 1013.61 1013.63 1013.70 1013.77 1013.84 1013.90 1013.93 1013.94 1013.92 1013.88 1013.82 1013.73 1013.63 1013.50 1013.35 1013.18 1013.00 1012.81 1012.62 1012.44 1012.29 1012.17 1012.10 1012.10 1012.15 1012.27 1012.45 1012.68 1012.96 1013.26 1013.58 1013.88 1014.16 1014.39 1014.57 1014.70 1014.77 1014.82 1014.84 1014.88
1013.46 1013.29 1013.18 1013.14 1013.15 1013.18 1013.23 1013.27 1013.31 1013.33 1013.33 1013.32 1013.31 1013.29 1013.26 1013.23 1013.18 1013.10 1013.00 1012.87 1012.73 1012.57 1012.42 1012.28 1012.18 1012.13 1012.13 1012.20 1012.34 1012.55 1012.80 1013.10 1013.42 1013.74 1014.03 1014.29 1014.49 1014.62 1014.69 1014.71 1014.69 1014.66 1014.65
1013.04 1012.86 1012.74 1012.68 1012.65 1012.65 1012.67 1012.68 1012.68 1012.68 1012.68 1012.67 1012.68 1012.70 1012.72 1012.74 1012.75 1012.75 1012.71 1012.65 1012.57 1012.46 1012.36 1012.27 1012.21 1012.19 1012.24 1012.34 1012.51 1012.74 1013.02 1013.33 1013.65 1013.96 1014.23 1014.46 1014.62 1014.71 1014.72 1014.69 1014.61 1014.54 1014.50
1012.61 1012.43 1012.30 1012.21 1012.15 1012.12 1012.10 1012.08 1012.05 1012.02 1012.00 1011.99 1012.01 1012.05 1012.10 1012.17 1012.24 1012.29 1012.33 1012.33 1012.31 1012.28 1012.24 1012.21 1012.21 1012.25 1012.34 1012.49 1012.69 1012.94 1013.23 1013.54 1013.85 1014.14 1014.39 1014.58 1014.70 1014.76 1014.74 1014.67 1014.57 1014.48 1014.42
1012.18 1012.00 1011.85 1011.74 1011.66 1011.60 1011.54 1011.48 1011.42 1011.36 1011.32 1011.30 1011.31 1011.36 1011.43 1011.53 1011.64 1011.75 1011.84 1011.91 1011.97 1012.01 1012.05 1012.09 1012.15 1012.25 1012.39 1012.58 1012.80 1013.06 1013.35 1013.65 1013.94 1014.20 1014.42 1014.59 1014.69 1014.72 1014.70 1014.62 1014.53 1014.45 1014.40
1011.75 1011.57 1011.42 1011.29 1011.18 1011.09 1011.00 1010.90 1010.80 1010.72 1010.65 1010.60 1010.60 1010.64 1010.72 1010.84 1010.98 1011.13 1011.27 1011.41 1011.53 1011.65 1011.76 1011.88 1012.02 1012.17 1012.35 1012.56 1012.80 1013.06 1013.33 1013.60 1013.86 1014.10 1014.30 1014.45 1014.54 1014.58 1014.58 1014.53 1014.47 1014.43 1014.42
1011.35 1011.16 1011.00 1010.86 1010.74 1010.61 1010.49 1010.36 1010.22 1010.10 1010.00 1009.93 1009.90 1009.92 1010.00 1010.12 1010.27 1010.45 1010.64 1010.83 1011.02 1011.21 1011.39 1011.58 1011.77 1011.98 1012.19 1012.42 1012.66 1012.90 1013.14 1013.38 1013.61 1013.81 1013.99 1014.14 1014.25 1014.32 1014.35 1014.37 1014.37 1014.38 1014.43
1010.98 1010.78 1010.62 1010.46 1010.32 1010.18 1010.02 1009.86 1009.69 1009.53 1009.38 1009.28 1009.22 1009.22 1009.28 1009.39 1009.55 1009.74 1009.97 1010.20 1010.44 1010.69 1010.94 1011.18 1011.42 1011.66 1011.90 1012.13 1012.36 1012.58 1012.79 1013.00 1013.19 1013.37 1013.54 1013.69 1013.82 1013.94 1014.03 1014.12 1014.20 1014.29 1014.40
1010.65 1010.45 1010.27 1010.11 1009.95 1009.78 1009.60 1009.40 1009.19 1008.99 1008.81 1008.66 1008.57 1008.54 1008.57 1008.66 1008.82 1009.02 1009.26 1009.52 1009.81 1010.10 1010.39 1010.67 1010.95 1011.22 1011.47 1011.71 1011.93 1012.12 1012.31 1012.48 1012.64 1012.80 1012.96 1013.12 1013.29 1013.45 1013.61 1013.77 1013.94 1014.11 1014.30
1010.36 1010.14 1009.95 1009.78 1009.60 1009.40 1009.19 1008.96 1008.72 1008.48 1008.25 1008.07 1007.93 1007.86 1007.87 1007.94 1008.08 1008.28 1008.53 1008.81 1009.11 1009.43 1009.75 1010.07 1010.38 1010.66 1010.93 1011.16 1011.37 1011.55 1011.71 1011.86 1012.00 1012.14 1012.30 1012.47 1012.66 1012.87 1013.09 1013.32 1013.57 1013.82 1014.08
1010.07 1009.84 1009.63 1009.43 1009.23 1009.01 1008.77 1008.50 1008.22 1007.94 1007.68 1007.46 1007.29 1007.19 1007.16 1007.21 1007.33 1007.52 1007.76 1008.05 1008.36 1008.70 1009.04 1009.37 1009.70 1010.00 1010.27 1010.51 1010.72 1010.90 1011.05 1011.18 1011.30 1011.44 1011.59 1011.77 1011.97 1012.21 1012.48 1012.77 1013.08 1013.39 1013.72
1009.75 1009.49 1009.26 1009.03 1008.80 1008.55 1008.27 1007.97 1007.66 1007.34 1007.05 1006.80 1006.60 1006.48 1006.43 1006.46 1006.57 1006.74 1006.98 1007.26 1007.58 1007.92 1008.26 1008.61 1008.95 1009.27 1009.55 1009.81 1010.02 1010.20 1010.35 1010.48 1010.60 1010.72 1010.86 1011.04 1011.25 1011.50 1011.79 1012.12 1012.47 1012.85 1013.23
1009.36 1009.05 1008.78 1008.52 1008.25 1007.96 1007.64 1007.31 1006.97 1006.63 1006.32 1006.05 1005.85 1005.71 1005.66 1005.68 1005.79 1005.96 1006.20 1006.48 1006.79 1007.13 1007.49 1007.84 1008.19 1008.52 1008.82 1009.09 1009.32 1009.51 1009.67 1009.80 1009.91 1010.03 1010.16 1010.32 1010.52 1010.77 1011.06 1011.40 1011.78 1012.19 1012.63
1008.84 1008.48 1008.16 1007.85 1007.53 1007.20 1006.86 1006.50 1006.13 1005.79 1005.47 1005.21 1005.01 1004.89 1004.85 1004.90 1005.02 1005.20 1005.45 1005.74 1006.06 1006.41 1006.76 1007.13 1007.48 1007.82 1008.14 1008.43 1008.67 1008.88 1009.05 1009.19 1009.30 1009.41 1009.52 1009.66 1009.83 1010.05 1010.32 1010.65 1011.03 1011.46 1011.92
1008.18 1007.77 1007.38 1007.01 1006.65 1006.28 1005.91 1005.53 1005.17 1004.82 1004.53 1004.29 1004.13 1004.04 1004.05 1004.13 1004.29 1004.52 1004.79 1005.10 1005.44 1005.80 1006.17 1006.54 1006.90 1007.26 1007.58 1007.88 1008.14 1008.37 1008.54 1008.68 1008.79 1008.88 1008.97 1009.07 1009.20 1009.38 1009.61 1009.91 1010.27 1010.69 1011.17
1007.40 1006.91 1006.47 1006.05 1005.65 1005.25 1004.86 1004.48 1004.12 1003.81 1003.55 1003.36 1003.25 1003.23 1003.30 1003.45 1003.67 1003.96 1004.28 1004.63 1005.00 1005.38 1005.77 1006.14 1006.51 1006.87 1007.20 1007.50 1007.77 1007.99 1008.18 1008.31 1008.41 1008.48 1008.53 1008.59 1008.67 1008.79 1008.97 1009.22 1009.54 1009.94 1010.40
Thickness
5754 5753 5751 5750 5751 5750 5749 5749 5749 5748 5748 5749 5749 5749 5748 5749 5749 5748 5745 5741 5739 5738 5737 5735 5734 5733 5732 5730 5729 5727 5726 5725 5724 5722 5720 5719 5718 5717 5716 5715 5714 5713 5712
5754 5753 5751 5750 5751 5751 5750 5749 5749 5748 5748 5748 5748 5748 5748 5748 5747 5746 5746 5742 5739 5737 5736 5735 5734 5733 5731 5730 5729 5727 5726 5725 5723 5721 5720 5719 5718 5716 5715 5714 5713 5712 5711
5754 5754 5754 5752 5752 5751 5750 5749 5748 5748 5748 5748 5747 5747 5747 5747 5747 5746 5745 5744 5742 5738 5736 5734 5733 5732 5731 5730 5728 5727 5725 5723 5722 5721 5719 5718 5717 5716 5715 5713 5712 5711 5710
5754 5754 5754 5754 5752 5752 5751 5750 5749 5749 5748 5747 5747 5747 5747 5746 5745 5745 5745 5744 5742 5741 5737 5735 5733 5732 5730 5729 5728 5726 5725 5723 5721 5720 5719 5718 5716 5715 5714 5713 5712 5710 5709
5754 5754 5754 5753 5752 5752 5751 5751 5750 5748 5746 5745 5746 5746 5747 5746 5745 5745 5744 5743 5742 5740 5739 5735 5733 5732 5730 5729 5727 5726 5724 5723 5721 5719 5718 5717 5716 5714 5713 5712 5711 5710 5708
5755 5755 5754 5753 5753 5753 5751 5750 5747 5747 5746 5745 5746 5745 5745 5746 5745 5744 5743 5743 5741 5740 5739 5737 5734 5732 5730 5728 5727 5725 5724 5722 5721 5719 5718 5716 5715 5714 5713 5711 5710 5709 5708
5756 5755 5756 5753 5753 5752 5751 5751 5749 5746 5745 5745 5743 5741 5742 5745 5744 5743 5742 5741 5740 5738 5737 5736 5735 5733 5731 5728 5726 5724 5723 5721 5720 5719 5717 5716 5715 5713 5712 5711 5709 5708 5707
5756 5757 5754 5754 5754 5752 5750 5749 5748 5746 5746 5746 5742 5738 5735 5736 5738 5741 5740 5738 5737 5736 5735 5734 5732 5730 5730 5728 5725 5723 5721 5720 5719 5718 5716 5715 5713 5712 5711 5710 5709 5708 5707
5758 5756 5755 5755 5754 5754 5752 5750 5748 5746 5745 5746 5747 5742 5735 5732 5733 5736 5736 5736 5734 5733 5732 5731 5729 5727 5726 5725 5723 5721 5719 5718 5717 5715 5714 5713 5711 5710 5709 5709 5707 5706 5706
5759 5758 5756 5755 5754 5754 5752 5751 5751 5749 5745 5745 5745 5745 5744 5741 5734 5730 5732 5732 5731 5730 5729 5729 5727 5724 5723 5721 5719 5717 5716 5714 5713 5712 5711 5710 5709 5708 5707 5707 5706 5704 5704
5760 5759 5757 5756 5754 5754 5752 5751 5749 5748 5747 5746 5745 5744 5742 5740 5739 5732 5726 5726 5727 5727 5727 5725 5724 5722 5720 5718 5716 5714 5712 5710 5709 5708 5707 5706 5705 5705 5704 5704 5703 5702 5701
5762 5760 5758 5757 5756 5754 5753 5751 5749 5748 5747 5745 5745 5744 5742 5740 5737 5735 5729 5725 5723 5724 5723 5722 5721 5719 5717 5715 5713 5710 5708 5706 5705 5704 5703 5702 5702 5701 5700 5700 5699 5698 5697
5763 5760 5760 5757 5756 5754 5753 5752 5750 5748 5747 5745 5743 5743 5743 5742 5741 5737 5732 5728 5724 5722 5720 5720 5718 5716 5714 5712 5708 5705 5703 5702 5700 5699 5698 5698 5697 5696 5695 5695 5694 5693 5692
5766 5763 5760 5758 5756 5755 5754 5752 5751 5749 5747 5744 5744 5742 5741 5741 5740 5737 5733 5728 5722 5720 5718 5716 5715 5712 5709 5707 5704 5702 5700 5697 5696 5694 5693 5692 5692 5691 5690 5689 5688 5687 5685
5767 5764 5761 5759 5757 5755 5753 5751 5749 5747 5745 5744 5743 5742 5740 5740 5738 5737 5734 5730 5724 5717 5714 5712 5711 5709 5706 5703 5700 5698 5696 5692 5690 5689 5687 5686 5686 5685 5683 5682 5681 5679 5678
5766 5763 5761 5759 5757 5754 5753 5750 5749 5746 5744 5742 5741 5739 5738 5739 5737 5735 5733 5730 5726 5720 5714 5712 5708 5706 5702 5700 5696 5694 5692 5688 5685 5683 5682 5680 5679 5678 5677 5675 5674 5672 5671
5766 5762 5760 5758 5756 5753 5751 5748 5747 5745 5743 5741 5740 5738 5736 5734 5733 5732 5730 5727 5724 5719 5712 5708 5704 5701 5696 5694 5692 5690 5688 5685 5682 5678 5676 5674 5673 5672 5670 5668 5666 5665 5663
5766 5763 5760 5758 5756 5753 5750 5747 5745 5744 5741 5739 5737 5735 5733 5732 5728 5728 5726 5723 5720 5716 5710 5702 5699 5696 5691 5689 5687 5685 5684 5682 5679 5674 5671 5669 5667 5665 5663 5661 5659 5657 5656
5764 5762 5759 5756 5754 5751 5749 5746 5744 5742 5739 5737 5735 5732 5730 5727 5724 5723 5720 5719 5716 5713 5709 5703 5698 5693 5689 5685 5682 5681 5679 5676 5675 5671 5666 5664 5661 5658 5656 5654 5652 5650 5648
5762 5759 5757 5754 5752 5750 5746 5744 5742 5740 5737 5735 5732 5729 5727 5724 5720 5718 5715 5713 5711 5707 5703 5700 5695 5690 5686 5682 5679 5676 5674 5672 5670 5668 5663 5660 5656 5653 5650 5647 5645 5643 5640
5759 5757 5754 5752 5751 5748 5745 5741 5739 5737 5734 5731 5728 5725 5723 5719 5715 5713 5712 5709 5705 5702 5699 5695 5690 5686 5682 5677 5675 5674 5671 5668 5665 5663 5660 5657 5654 5650 5647 5642 5639 5636 5634
5755 5754 5752 5749 5747 5746 5740 5735 5734 5734 5731 5728 5725 5722 5719 5715 5711 5707 5704 5701 5699 5697 5694 5690 5687 5682 5678 5675 5672 5670 5666 5662 5658 5659 5655 5653 5651 5648 5644 5640 5635 5631 5627
5753 5751 5748 5745 5743 5740 5735 5731 5728 5728 5727 5725 5722 5718 5717 5713 5708 5705 5700 5695 5693 5690 5687 5686 5683 5680 5676 5672 5667 5664 5660 5658 5655 5654 5649 5648 5646 5643 5639 5635 5629 5624 5620
5749 5747 5744 5742 5740 5737 5731 5727 5724 5724 5723 5720 5717 5714 5711 5707 5704 5699 5697 5694 5691 5687 5683 5680 5678 5675 5672 5667 5662 5659 5656 5652 5650 5647 5643 5640 5640 5637 5635 5630 5623 5619 5615
5745 5744 5741 5738 5736 5732 5726 5722 5718 5719 5718 5715 5713 5709 5706 5702 5695 5691 5690 5688 5685 5682 5678 5674 5670 5667 5662 5658 5655 5652 5649 5646 5644 5643 5639 5635 5634 5631 5628 5625 5620 5614 5610
5741 5739 5737 5735 5732 5728 5721 5717 5712 5715 5713 5710 5707 5704 5698 5695 5689 5684 5684 5681 5678 5676 5675 5671 5665 5660 5657 5652 5648 5645 5644 5641 5640 5638 5635 5629 5627 5624 5621 5621 5617 5610 5605